sat.trackr.live / text

‹ back to catalog

COSMOS 2503

NORAD 40420 · 2015-009A

PAYLOAD ACTIVE UNKNOWN

§ Identity

Operator
Country
CIS
Launch date
2015-02-27
Launch site
PLMSC
Launch vehicle
Mass (kg)
RCS (m²)
5.53

External: N2YO · Heavens-Above · Gunter

§ Orbital elements

Epoch: 2026-09-12T01:31:59.306304Z

Period
95.57 min
Inclination
97.8218°
Eccentricity
0.0015105
Mean motion
15.06803583 rev/d
Perigee alt
535.5 km
Apogee alt
556.4 km
Semi-major
6,924.1 km
B*
5.7982e-5
RAAN
313.1927°
Arg perigee
321.9757°
Mean anomaly
38.0403°
Rev number
63,201

§ Raw data

COSMOS 25031 40420U 15009A   26255.06388086  .00000799  00000+0  57982-4 0  99932 40420  97.8218 313.1927 0015105 321.9757  38.0403 15.06803583632018

JSON: /api/v1/satellites/40420 · /tle

For live sub-satellite position, see the globe view (requires WebGL).

§ Visibility from observer

Set your observer location to see the next 7 days of passes ≥ 10°. The values pass through the URL so the page stays shareable.

No JS? Fill the form by hand. The geolocation button needs JavaScript.